TimePST,TemperatureF,Dew PointF,Humidity,Sea Level PressureIn,VisibilityMPH,Wind Direction,Wind SpeedMPH,Gust SpeedMPH,PrecipitationIn,Events,Conditions,WindDirDegrees,DateUTC
12:53 AM,53.1,50.0,89,30.15,10.0,Calm,Calm,-,N/A,,Clear,0,2012-11-04 07:53:00
1:53 AM,53.1,50.0,89,30.15,10.0,Calm,Calm,-,N/A,,Clear,0,2012-11-04 08:53:00
1:53 AM,52.0,48.9,89,30.16,8.0,Calm,Calm,-,N/A,,Clear,0,2012-11-04 09:53:00
2:53 AM,51.1,48.9,92,30.15,6.0,Calm,Calm,-,N/A,,Clear,0,2012-11-04 10:53:00
3:53 AM,50.0,48.0,93,30.16,6.0,Calm,Calm,-,N/A,,Clear,0,2012-11-04 11:53:00
4:53 AM,50.0,46.9,89,30.17,8.0,Calm,Calm,-,N/A,,Clear,0,2012-11-04 12:53:00
5:53 AM,48.9,46.9,93,30.17,5.0,Calm,Calm,-,N/A,,Clear,0,2012-11-04 13:53:00
6:53 AM,50.0,46.9,89,30.19,6.0,Calm,Calm,-,N/A,,Clear,0,2012-11-04 14:53:00
7:53 AM,54.0,50.0,86,30.22,10.0,Calm,Calm,-,N/A,,Clear,0,2012-11-04 15:53:00
8:53 AM,57.9,52.0,81,30.22,7.0,Calm,Calm,-,N/A,,Clear,0,2012-11-04 16:53:00
9:53 AM,64.0,53.1,67,30.22,10.0,Calm,Calm,-,N/A,,Clear,0,2012-11-04 17:53:00
10:53 AM,66.0,52.0,60,30.22,10.0,South,3.5,-,N/A,,Clear,180,2012-11-04 18:53:00
11:53 AM,70.0,52.0,53,30.19,10.0,Calm,Calm,-,N/A,,Clear,0,2012-11-04 19:53:00
12:53 PM,71.1,53.1,53,30.17,10.0,Calm,Calm,-,N/A,,Clear,0,2012-11-04 20:53:00
1:53 PM,73.9,52.0,46,30.15,10.0,Calm,Calm,-,N/A,,Clear,0,2012-11-04 21:53:00
2:53 PM,75.0,53.1,46,30.14,10.0,North,4.6,-,N/A,,Clear,360,2012-11-04 22:53:00
3:53 PM,73.9,53.1,48,30.14,10.0,NNW,4.6,-,N/A,,Clear,340,2012-11-04 23:53:00
4:53 PM,72.0,52.0,49,30.14,10.0,Calm,Calm,-,N/A,,Clear,0,2012-11-05 00:53:00
5:53 PM,63.0,54.0,72,30.14,10.0,Calm,Calm,-,N/A,,Clear,0,2012-11-05 01:53:00
6:53 PM,61.0,54.0,78,30.14,10.0,Calm,Calm,-,N/A,,Clear,0,2012-11-05 02:53:00
7:53 PM,60.1,53.1,78,30.14,10.0,Calm,Calm,-,N/A,,Clear,0,2012-11-05 03:53:00
8:53 PM,57.9,53.1,84,30.15,10.0,Calm,Calm,-,N/A,,Clear,0,2012-11-05 04:53:00
9:53 PM,55.9,53.1,90,30.16,10.0,Calm,Calm,-,N/A,,Clear,0,2012-11-05 05:53:00
10:53 PM,55.0,53.1,93,30.16,10.0,Calm,Calm,-,N/A,,Clear,0,2012-11-05 06:53:00